Theta_e
303 302 302 303 303 303 303 303 304 304 304 304 304 305 305 305 306 305 303 302 303 304 305 307 307 308 305 302 304 306 308 309 304 304 305 307 307 308 308 308 308 304 302 305 305 305 306 306 307 307 307 307 308 309 310 312 314 316 317 320 323 323 323 321 320 318 323 327 325 326 327 328 331 328 327 327 327 327 326 327 327 327 329 334 338 342 341 341
303 302 302 302 302 303 303 303 303 304 304 304 304 305 305 305 306 304 301 299 299 301 302 304 303 304 304 302 303 304 307 308 304 303 304 306 308 308 308 308 307 305 304 306 305 305 306 306 307 307 307 308 308 308 309 310 311 313 314 316 317 318 319 317 318 320 321 321 321 323 323 325 328 326 327 326 327 328 327 326 326 325 330 338 340 341 341 340
302 302 302 302 302 302 303 303 303 303 304 304 304 305 305 305 305 301 298 296 297 300 300 300 300 301 302 303 303 302 307 309 304 303 304 305 307 308 308 307 306 305 305 305 305 305 305 306 307 306 307 309 308 308 307 308 310 311 311 312 313 314 314 313 317 319 317 317 319 320 320 323 322 321 326 327 328 327 326 326 326 326 329 338 341 340 340 340
302 302 302 302 302 302 302 303 303 303 304 304 304 305 305 305 302 297 296 296 297 300 300 300 300 301 303 304 304 302 307 310 304 302 304 306 307 307 307 306 306 305 305 305 305 306 305 305 305 305 307 308 307 307 306 307 309 310 309 310 311 311 312 312 315 315 314 314 317 317 318 321 317 318 324 327 329 327 325 327 328 327 327 335 339 339 340 340
302 302 302 302 302 302 302 303 303 303 304 304 304 305 304 303 299 295 295 296 298 299 299 300 300 301 303 305 306 306 309 306 303 303 304 305 306 306 306 306 306 304 305 305 305 305 305 305 306 306 306 306 306 306 307 307 308 308 308 309 309 309 310 311 312 312 311 311 313 314 316 316 314 316 321 324 328 328 326 328 329 327 328 334 339 338 339 340
301 301 301 301 302 302 302 302 303 303 303 304 304 305 303 301 296 294 295 297 299 299 299 301 301 302 303 304 305 307 308 303 302 304 303 305 305 305 306 306 305 304 305 306 306 305 306 306 306 306 305 305 306 306 307 307 307 307 307 307 308 308 308 308 309 309 309 309 310 311 312 311 311 314 317 320 325 327 325 326 327 327 327 330 336 338 338 340
301 301 301 301 301 302 302 302 302 302 303 304 304 304 302 299 295 294 296 298 299 299 300 301 303 305 304 307 306 304 304 302 302 303 303 304 304 304 305 305 305 304 305 305 306 306 307 306 304 305 305 305 305 305 305 305 305 305 305 306 306 307 307 308 308 309 310 310 310 310 310 310 310 312 314 316 319 322 323 323 324 326 326 327 332 338 338 339
301 301 301 302 302 301 301 301 302 303 303 303 304 304 302 298 294 295 297 299 299 299 301 301 304 306 305 310 309 302 302 302 302 303 303 304 303 304 305 306 305 305 305 305 306 307 307 306 305 305 305 304 303 303 303 304 304 304 304 305 306 307 307 308 309 310 311 311 310 310 311 310 310 311 311 312 313 316 319 320 321 323 325 326 328 332 336 338
301 301 301 302 301 300 298 298 299 301 303 304 304 303 300 296 295 297 299 299 299 299 300 302 304 304 305 310 308 301 301 302 303 303 303 303 303 304 305 306 306 306 306 305 307 307 307 306 307 306 305 305 304 304 305 306 306 305 305 306 306 306 307 308 308 308 309 310 310 311 310 310 310 310 310 310 312 315 317 319 320 321 324 326 326 327 330 334
301 301 301 301 301 298 297 297 296 298 302 304 304 301 297 295 296 298 299 299 300 299 300 302 304 304 303 305 304 301 301 302 303 303 302 303 304 305 306 306 306 307 306 306 307 307 307 307 307 307 307 307 305 304 305 305 306 305 306 306 306 307 306 306 306 306 307 307 309 310 310 310 310 310 309 310 312 315 317 318 320 321 322 323 326 327 326 329
301 301 301 301 300 298 296 296 296 298 302 303 301 298 295 296 297 298 299 299 300 300 300 301 302 305 304 302 302 301 301 302 303 302 303 303 304 305 306 306 307 307 306 306 306 306 307 307 307 307 308 308 305 304 304 304 305 305 306 306 305 305 304 305 305 305 307 307 308 309 310 311 312 310 309 309 309 310 311 315 318 321 322 322 324 327 327 327
301 301 301 300 299 297 295 295 296 297 299 299 298 297 296 296 298 299 299 299 300 300 300 301 302 307 307 302 301 301 301 302 303 302 303 303 304 305 306 306 307 306 306 306 306 306 306 306 307 307 307 307 306 306 305 305 305 304 304 303 303 302 302 303 303 304 306 307 308 309 311 312 312 310 309 308 307 307 307 309 313 316 320 323 325 327 328 327
300 300 300 300 298 297 295 295 297 297 298 298 297 297 296 297 298 299 299 300 300 299 300 301 303 308 308 303 301 301 302 302 302 302 303 303 304 304 306 306 307 306 306 306 306 306 306 306 306 307 307 307 307 307 306 306 306 305 305 303 303 303 302 303 304 304 305 308 309 310 312 312 311 310 310 309 308 307 306 307 310 314 318 321 323 326 328 329
300 300 300 300 298 296 295 296 296 296 297 298 298 298 298 298 298 299 299 300 300 300 301 301 303 307 307 303 302 301 302 302 302 302 303 303 303 304 306 307 307 306 306 307 307 306 306 306 307 307 307 307 308 307 306 306 305 306 306 304 304 304 304 304 304 305 306 308 309 310 311 311 311 311 310 310 309 307 305 306 309 313 317 319 320 322 325 328
300 300 300 299 298 296 295 296 296 297 298 298 298 299 299 299 298 299 299 300 300 300 302 303 303 307 305 302 302 301 301 302 302 303 303 302 303 305 306 307 307 306 306 307 307 307 307 307 308 308 307 308 308 307 306 306 305 305 306 306 305 305 304 304 304 305 306 308 309 310 311 311 311 311 311 311 310 308 307 306 307 309 313 315 317 318 320 323
299 299 300 299 298 296 295 296 296 297 298 298 299 300 300 300 300 300 300 300 301 301 304 304 304 306 304 300 301 301 302 302 302 303 303 301 302 305 306 307 308 307 307 307 307 308 307 307 308 308 307 308 308 306 306 306 306 306 305 306 305 304 304 303 304 304 306 308 310 311 311 311 311 310 311 310 311 311 308 307 307 307 309 310 311 313 315 317
299 299 299 299 298 296 296 297 296 297 298 298 299 300 301 301 302 302 302 301 301 302 305 304 303 305 303 300 300 302 302 301 302 304 302 301 302 305 306 307 308 308 308 308 308 309 308 308 308 307 306 307 306 305 307 306 306 306 305 305 305 304 304 304 303 304 305 307 308 309 310 311 311 310 311 310 311 311 309 309 309 311 313 312 312 312 313 314
299 299 299 299 299 297 296 297 296 297 297 298 298 298 299 300 301 301 302 302 303 304 305 303 302 303 303 301 301 302 302 301 303 304 301 300 302 304 306 307 308 308 309 309 308 309 308 307 306 305 305 305 305 305 307 307 306 306 305 306 306 305 305 304 303 303 303 303 305 307 309 310 310 310 311 311 311 311 310 311 312 312 312 313 314 312 313 315
298 298 299 299 299 297 297 297 297 297 297 298 297 297 300 302 302 302 301 302 303 304 303 303 302 302 301 302 302 302 302 302 304 303 300 301 302 304 305 306 308 308 308 308 308 308 307 306 305 306 306 305 305 305 306 306 306 306 306 306 306 306 305 304 304 303 303 303 303 304 306 308 310 310 310 311 311 312 312 311 312 313 312 313 315 313 313 315
298 298 299 299 298 297 297 297 297 297 297 297 298 300 304 307 306 303 302 302 302 302 302 303 303 302 301 302 302 301 302 303 303 302 300 301 303 304 305 305 308 308 307 307 308 308 307 305 305 306 306 305 305 305 305 305 305 305 305 306 306 305 305 304 304 305 306 306 304 302 305 308 309 310 310 311 311 312 312 312 312 313 313 315 317 317 317 316
298 298 299 299 297 296 297 298 298 298 299 299 300 304 305 305 306 305 302 302 302 302 303 303 303 302 300 302 302 300 302 304 303 301 300 301 303 305 306 306 306 306 306 307 308 308 307 305 304 305 305 305 305 305 305 304 304 305 305 306 306 306 305 304 305 306 307 308 307 305 306 308 308 309 309 311 312 313 313 312 313 313 313 314 314 315 315 314
298 299 299 298 296 296 297 298 299 299 299 299 301 303 301 301 303 302 302 302 301 302 303 302 302 300 300 302 301 300 303 303 302 301 301 301 303 305 306 305 304 305 306 307 307 306 305 303 304 303 304 306 306 305 305 305 305 305 306 306 306 306 305 305 308 309 307 308 309 308 308 308 308 309 310 311 312 313 313 311 311 312 311 311 311 311 311 310
298 299 299 298 296 297 298 299 300 300 299 299 301 301 300 300 301 300 302 304 302 301 302 302 302 300 300 301 300 301 304 302 301 302 301 302 303 304 305 304 303 304 305 306 307 305 302 303 303 303 304 305 306 306 306 305 306 306 307 307 307 307 307 307 309 309 307 307 308 309 310 309 309 310 309 310 310 310 309 308 308 309 309 309 309 308 308 308
296 297 297 297 296 297 299 300 301 302 301 300 300 300 300 300 301 301 303 304 302 302 301 301 302 301 300 301 300 302 304 302 301 301 301 302 302 303 306 305 303 304 303 304 307 305 301 302 303 303 304 305 306 306 305 305 306 307 307 308 308 307 307 307 307 307 306 307 307 307 309 309 309 309 306 305 306 305 306 306 306 307 307 307 307 306 306 306
296 296 296 297 296 298 301 301 300 301 301 301 300 300 300 300 301 302 304 303 301 301 301 302 303 300 299 301 300 302 304 302 301 301 301 301 302 304 306 303 303 304 303 303 306 305 301 303 304 303 304 305 306 306 306 306 307 307 307 307 307 307 307 307 307 307 308 310 309 308 311 309 306 306 304 303 303 303 304 305 305 306 305 305 305 305 305 305
296 295 296 297 297 300 303 301 300 301 302 301 300 300 300 300 300 300 305 307 302 300 301 302 303 301 300 301 301 302 302 301 300 300 301 301 301 304 305 302 302 304 304 304 305 304 302 303 303 304 304 304 304 305 305 305 307 308 308 308 308 308 308 308 308 309 309 311 310 309 310 308 305 304 303 303 302 302 302 303 304 304 305 305 305 304 304 304
296 295 296 296 297 301 302 301 301 302 302 301 299 300 300 300 300 300 306 308 301 299 300 302 302 300 300 301 301 302 301 299 299 300 301 300 299 303 304 301 302 303 304 306 305 304 304 304 303 304 305 304 303 303 303 304 307 308 308 309 308 308 309 308 309 309 309 310 310 310 309 306 304 303 302 303 302 302 302 302 302 302 303 304 305 304 304 304
295 295 296 296 297 299 302 302 302 301 301 300 299 299 299 300 300 302 308 304 298 299 300 300 302 300 300 301 301 301 300 300 300 300 301 301 298 301 303 301 301 301 303 306 306 304 304 304 304 305 305 304 303 303 302 303 306 308 307 308 308 309 308 309 309 309 309 310 310 311 308 305 303 302 300 302 302 302 302 301 301 301 302 303 303 304 304 303
296 295 296 297 299 300 301 301 301 300 300 299 298 298 299 299 299 303 307 301 297 299 300 300 301 300 300 301 301 301 301 300 300 300 301 301 298 299 303 301 299 300 303 305 306 303 302 304 305 305 304 303 303 302 302 304 306 307 307 308 309 309 309 310 310 309 310 310 309 310 309 305 303 301 300 301 301 301 301 301 301 301 301 302 302 303 302 302
296 295 296 297 299 300 302 301 299 299 299 298 297 297 298 300 304 306 304 299 298 299 299 300 301 301 300 300 300 300 301 300 300 300 301 302 299 298 301 300 297 300 303 304 304 301 301 304 304 303 304 303 302 302 303 306 308 308 308 309 310 311 311 311 309 307 310 309 305 306 306 304 303 301 300 301 301 300 300 300 300 300 301 302 302 302 301 301
296 296 296 297 297 298 300 301 298 298 299 297 297 298 300 304 308 306 300 299 300 299 299 300 301 300 299 299 299 299 300 301 299 300 301 300 299 297 297 298 296 299 300 300 301 300 301 303 301 302 304 302 301 302 302 306 308 308 308 308 308 310 311 312 309 308 310 309 306 304 303 303 303 302 300 300 300 300 300 299 300 300 300 301 301 301 300 300
296 296 296 296 297 297 297 298 297 297 298 297 298 300 304 308 307 302 299 300 300 299 299 300 300 299 299 299 298 298 300 301 299 301 301 299 299 297 296 296 295 298 299 299 299 299 300 301 300 301 303 301 301 301 301 304 305 305 305 306 307 308 309 311 311 310 309 309 306 305 304 303 302 300 299 300 299 299 299 300 300 300 300 300 300 300 300 300
296 297 297 296 297 296 295 296 296 296 296 298 300 301 306 308 304 299 299 299 299 298 299 300 299 299 300 299 298 298 300 301 299 300 301 299 299 298 297 296 295 296 298 298 298 298 299 300 300 300 301 301 301 301 301 303 303 303 303 305 307 307 308 310 311 311 311 308 305 305 305 304 302 300 299 299 298 299 299 300 300 300 300 300 300 299 299 299
296 297 299 298 297 296 295 296 296 295 296 299 302 305 307 306 301 298 298 298 298 298 299 300 299 299 300 298 298 298 300 301 300 300 300 299 299 298 298 297 295 294 295 296 297 298 297 299 300 299 300 301 301 301 302 303 303 303 301 303 306 307 308 309 310 311 312 310 308 308 307 305 303 301 299 298 298 298 298 299 299 300 300 300 300 299 298 298
296 297 299 299 298 296 295 296 295 294 297 301 304 307 306 302 299 300 300 299 299 299 299 299 298 299 299 298 299 299 299 300 300 299 300 299 298 298 297 297 296 294 293 294 296 296 295 297 299 299 300 301 300 301 302 303 302 302 301 301 302 304 306 308 309 310 311 311 310 308 305 304 302 300 300 299 299 298 297 298 298 299 299 299 299 298 298 297
299 299 300 300 297 294 295 296 295 295 298 303 306 305 302 298 299 301 302 301 300 299 299 300 298 298 299 298 299 300 299 300 300 299 299 298 298 298 297 296 295 294 293 293 295 296 296 297 297 299 300 299 299 300 301 303 301 301 303 301 299 302 306 308 309 308 309 311 310 307 304 303 302 301 300 299 299 298 297 297 297 298 298 299 299 298 298 297
300 300 300 300 295 293 295 295 294 296 301 306 307 303 298 296 297 299 300 300 299 298 299 300 299 298 298 299 299 299 299 300 299 299 299 298 299 298 296 296 295 294 293 292 294 296 296 297 298 299 300 299 299 301 302 302 300 300 302 301 300 304 308 307 306 306 307 306 307 309 307 305 306 304 300 299 298 298 297 297 297 297 298 298 298 298 298 297
298 299 301 299 294 293 295 294 295 298 303 305 303 299 295 296 297 298 299 299 299 299 299 299 298 297 297 299 299 298 299 299 298 298 299 298 299 298 295 296 295 293 293 293 293 295 297 298 299 299 300 298 299 302 303 302 299 299 301 299 300 304 304 303 303 305 305 301 302 307 307 305 307 304 300 298 297 297 297 296 296 297 297 297 298 298 297 297
298 300 302 298 293 294 295 296 298 302 305 305 304 300 297 298 298 298 298 299 299 300 300 299 298 297 297 297 298 298 297 298 297 298 298 298 299 298 295 295 294 292 292 293 294 295 297 299 300 300 299 299 300 302 302 300 297 298 299 298 298 299 299 301 303 303 301 298 299 302 303 303 304 302 299 298 296 296 296 296 296 296 297 297 298 298 298 297
298 301 303 297 293 294 296 298 302 303 303 303 302 298 295 297 299 297 298 298 298 299 300 299 298 298 297 297 297 297 296 297 297 297 298 297 297 297 296 294 292 291 292 293 294 296 297 298 300 299 299 300 300 300 300 298 297 298 298 297 297 296 298 301 302 300 298 297 298 299 300 301 301 300 299 297 296 296 296 296 296 296 296 296 297 298 298 297
298 302 303 296 293 295 297 300 302 301 300 298 298 296 294 296 298 298 297 297 298 298 298 298 298 298 296 296 298 297 295 296 297 297 297 296 295 296 296 293 291 290 292 294 295 296 296 297 298 298 298 300 299 299 299 298 298 298 298 297 297 296 298 299 299 300 298 298 299 297 298 301 299 299 299 297 296 296 295 296 296 295 295 295 296 297 297 298
299 303 301 295 293 296 300 302 301 300 300 298 297 297 296 297 297 297 296 295 296 297 297 298 298 297 296 296 297 296 295 296 296 297 297 296 296 297 295 293 292 291 293 295 296 296 296 296 298 298 298 299 299 299 299 298 299 300 298 297 296 296 298 297 297 298 298 298 300 299 300 302 300 299 298 297 296 295 295 295 295 294 294 294 294 295 296 297
300 300 298 295 293 296 302 304 300 298 295 293 294 295 296 296 296 295 295 295 295 295 297 297 297 297 297 296 296 296 295 296 295 296 297 296 296 297 295 292 292 293 294 295 296 295 296 297 297 298 298 299 300 300 299 298 298 298 297 297 297 297 297 296 296 297 297 299 300 299 301 302 301 300 299 297 297 295 295 294 294 294 294 294 294 293 294 296
298 297 297 296 294 297 304 305 301 297 293 293 295 295 295 295 295 295 294 295 296 295 297 298 297 297 297 295 296 295 295 295 295 296 296 295 295 295 295 293 292 293 294 295 294 294 296 297 297 297 298 299 300 299 299 299 297 295 295 297 297 296 296 296 295 296 298 299 297 297 299 301 301 302 299 297 297 296 295 294 294 294 294 293 294 294 293 294
298 299 299 297 295 298 302 300 299 298 295 295 297 296 295 295 294 295 295 295 296 295 297 297 297 297 296 294 294 293 292 293 294 294 294 293 294 294 294 293 292 293 294 294 293 293 295 296 295 296 298 299 299 298 297 296 295 294 295 296 296 295 296 296 295 295 298 298 296 297 300 299 300 301 299 298 297 296 296 296 294 294 294 293 293 294 293 294
300 302 302 300 297 298 298 296 297 297 295 296 298 296 295 295 294 294 294 295 296 295 295 296 296 296 295 294 293 293 292 291 290 291 291 291 292 293 294 293 292 292 293 293 292 292 293 294 293 294 296 297 296 295 295 294 293 293 293 294 294 295 295 295 295 295 297 297 296 297 297 297 297 298 298 297 296 296 296 296 294 293 293 293 293 293 293 294
300 302 300 299 300 299 298 296 296 296 295 296 297 296 295 296 294 293 293 294 294 294 294 295 295 296 295 294 294 294 292 289 288 289 289 289 291 293 294 293 292 292 292 292 292 291 291 292 292 293 293 294 294 293 293 293 292 292 292 293 293 294 294 294 295 295 296 296 296 297 296 297 296 296 296 296 295 296 296 295 294 293 293 292 292 292 293 293
298 299 294 293 298 301 299 297 295 295 295 295 295 295 295 295 294 293 293 293 293 293 294 294 294 295 296 295 293 292 291 291 289 289 290 290 290 291 293 293 292 292 291 291 291 290 290 291 292 291 292 292 292 292 292 292 292 292 292 292 292 293 294 294 294 294 294 295 295 295 296 296 295 295 295 295 295 295 295 294 294 293 293 292 292 292 292 292
296 296 292 290 295 297 296 295 295 294 294 295 294 294 295 296 295 294 294 293 293 292 293 295 294 294 296 295 292 291 292 293 292 291 290 290 291 291 292 293 293 292 291 291 290 290 290 292 291 290 291 291 290 291 291 291 291 291 291 292 292 292 293 293 294 294 294 294 294 294 295 294 294 295 295 295 295 295 294 294 293 293 293 292 292 291 291 291
296 296 293 292 294 293 292 293 294 294 295 295 296 296 295 295 296 295 293 294 295 293 292 294 295 294 296 296 293 292 292 293 293 292 291 291 292 292 292 293 293 292 291 291 290 289 290 292 292 290 291 291 291 292 292 292 292 292 292 292 292 292 293 293 293 294 294 295 294 294 295 294 294 295 295 295 295 294 294 294 293 293 293 292 292 291 291 291
293 292 293 295 297 294 292 293 293 294 296 296 296 297 296 295 296 295 293 294 295 294 292 293 294 294 294 295 293 292 293 293 293 294 293 292 293 293 293 293 292 292 292 291 291 290 290 292 292 290 292 293 292 292 293 292 292 292 292 292 292 291 292 293 294 295 295 295 295 296 296 295 295 296 297 296 296 295 295 294 294 293 292 292 291 291 291 290
291 291 291 295 299 296 293 293 293 295 298 297 296 297 296 296 296 295 295 295 294 294 293 293 293 293 293 294 293 293 293 293 292 292 293 293 293 292 293 293 292 292 292 291 291 291 291 291 291 291 293 293 292 292 292 292 294 297 297 296 294 293 294 295 296 297 297 296 295 296 296 295 296 297 297 296 296 296 296 294 293 292 292 291 291 290 290 290
Wind_Speed
17 16 16 16 17 17 17 17 18 18 18 18 19 19 19 18 18 18 16 15 14 13 13 13 13 13 13 8 1 1 2 7 16 23 22 19 20 20 21 21 23 22 20 21 20 19 19 17 18 21 17 5 1 1 3 1 1 2 2 3 5 5 4 4 5 4 5 6 9 11 12 7 2 1 1 0 4 4 6 5 4 4 3 8 13 18 20 18
17 17 17 17 18 18 18 18 18 19 19 19 19 20 20 19 18 17 15 14 13 13 12 12 13 13 12 11 4 3 1 4 16 21 20 22 23 22 23 22 22 20 19 19 18 18 15 14 18 17 10 4 1 2 3 1 3 2 2 4 6 4 4 6 4 9 9 9 11 11 13 11 6 6 3 2 6 5 6 7 6 9 5 12 14 18 19 18
17 17 18 18 18 19 19 19 19 20 20 20 20 21 20 19 18 16 14 13 13 12 13 13 13 13 12 12 6 4 4 4 11 17 20 25 25 25 25 23 22 19 17 17 16 15 12 12 16 14 7 4 2 3 4 1 2 3 4 4 5 4 7 8 4 12 10 11 12 12 12 11 10 11 6 6 6 6 7 5 3 7 4 10 12 14 17 16
18 18 18 18 19 20 20 20 20 20 21 21 21 21 21 20 17 15 13 13 12 11 14 14 13 14 14 12 6 3 4 5 6 15 23 26 26 26 24 23 22 20 17 15 13 13 12 12 12 9 6 4 3 3 4 1 1 1 3 5 6 7 8 10 8 11 11 11 11 12 11 9 12 11 7 8 8 5 4 2 5 7 7 7 12 10 13 13
17 18 19 19 20 20 20 21 21 21 22 22 22 22 21 19 16 14 12 12 11 11 14 15 13 13 15 18 12 2 5 2 7 18 24 26 27 25 24 23 20 20 18 14 12 12 12 10 8 5 3 4 4 3 3 4 6 3 4 7 8 10 10 12 13 11 10 9 11 12 12 9 11 11 8 9 7 4 2 6 9 10 13 5 12 8 10 10
17 18 19 19 20 20 21 21 22 22 22 22 23 22 21 18 15 12 11 11 11 11 13 15 14 11 11 17 20 10 1 2 10 21 24 26 26 25 24 21 18 19 17 14 14 12 12 10 6 5 3 4 4 3 5 7 7 5 6 9 10 11 11 12 13 11 9 9 9 10 12 10 11 11 10 10 8 8 9 9 9 8 12 7 6 8 7 8
18 19 19 20 20 21 21 21 22 22 22 22 23 22 21 17 13 10 10 12 10 10 13 15 14 13 9 7 14 16 8 5 14 20 22 26 25 25 23 18 19 19 15 14 14 11 10 10 9 7 5 4 4 6 7 8 8 7 7 9 11 11 12 11 11 11 10 10 9 9 11 12 11 10 10 11 9 11 13 11 10 8 10 11 2 6 6 7
18 19 20 21 21 22 22 22 22 22 22 22 23 22 19 13 10 9 9 11 11 9 13 15 14 15 13 7 4 9 7 7 16 19 22 25 24 24 20 17 19 18 15 13 13 11 9 9 10 7 5 5 7 8 7 7 7 7 7 8 9 10 11 12 11 12 11 9 9 9 11 12 11 11 13 15 12 12 14 13 11 10 8 9 8 2 3 6
19 20 21 22 22 23 22 22 21 21 22 22 23 20 15 10 8 8 9 11 11 9 11 14 16 19 16 7 3 6 6 12 16 17 22 24 24 23 19 17 18 17 14 13 12 12 8 7 9 7 6 7 7 7 7 5 5 6 9 11 11 12 13 13 12 12 11 7 7 10 11 11 10 11 13 13 11 9 11 14 12 11 9 5 7 8 5 1
19 20 21 22 22 23 23 22 20 19 21 22 21 17 11 8 8 8 9 11 11 9 9 11 14 20 20 12 6 7 10 16 15 18 22 23 23 22 19 17 17 16 14 12 11 12 8 7 9 7 5 6 6 8 7 5 6 9 11 11 11 13 12 12 13 12 11 9 9 11 11 12 9 8 10 7 9 10 7 10 11 12 12 8 5 5 7 6
19 20 22 23 22 23 22 21 19 19 20 20 17 12 8 8 8 9 9 11 11 8 7 7 10 14 18 15 8 6 12 16 14 19 22 21 22 20 19 17 16 15 13 12 11 12 9 10 11 6 4 5 8 9 6 7 10 10 9 11 12 12 11 11 13 12 9 8 9 11 12 11 8 10 12 8 11 15 13 11 9 10 11 11 7 4 5 5
19 20 22 23 22 22 21 19 19 19 19 16 12 9 7 7 8 9 10 11 10 8 6 5 8 10 9 10 8 5 13 16 14 19 22 20 20 19 16 15 14 12 11 10 10 11 9 10 10 6 4 6 8 7 7 11 12 9 9 10 11 11 11 12 13 11 9 7 9 9 10 9 8 12 15 12 13 16 16 15 11 10 9 8 6 3 4 3
19 21 23 23 22 21 20 19 18 18 16 12 9 7 6 5 7 11 13 13 9 7 7 6 8 9 6 4 6 10 16 17 16 20 22 20 20 17 13 14 12 9 7 7 7 9 8 8 8 6 5 5 5 6 8 11 10 9 9 7 8 8 8 10 9 8 8 9 9 7 5 4 6 10 13 14 14 14 16 15 11 10 8 7 6 4 4 3
20 21 23 23 22 20 18 17 18 16 12 10 9 8 7 4 6 10 14 16 12 7 6 8 9 8 4 2 5 12 17 17 17 22 24 24 23 18 15 15 11 6 5 5 5 5 5 5 5 6 5 3 4 7 8 9 7 7 7 5 4 4 4 7 5 3 4 5 4 5 5 4 5 9 10 11 12 13 14 14 11 10 8 7 7 7 5 4
20 22 24 23 21 19 17 17 17 13 10 11 12 11 10 7 5 5 8 13 14 11 9 11 12 8 2 3 5 12 17 18 18 22 23 24 24 17 16 17 10 6 4 4 3 2 2 4 5 3 3 4 5 6 6 6 5 4 4 4 3 3 4 6 5 2 3 3 5 6 6 4 6 9 8 8 7 10 12 11 11 11 9 8 7 7 8 5
20 22 23 22 20 18 15 16 15 10 9 13 16 17 16 14 9 5 5 5 7 12 12 11 12 7 2 2 7 13 17 19 19 20 22 24 21 13 16 17 9 5 3 1 2 3 4 3 3 1 2 4 4 5 5 5 5 3 3 5 6 7 6 5 8 8 3 3 5 6 5 5 7 8 8 11 10 6 7 8 9 10 10 9 7 7 8 8
20 22 22 21 19 17 15 16 13 7 9 14 15 18 20 20 18 14 9 5 4 6 9 12 12 3 3 6 8 10 15 20 19 18 23 26 19 11 13 12 9 9 6 3 3 4 4 2 2 1 0 4 6 7 6 4 5 5 5 6 7 9 8 6 10 11 8 7 7 7 6 7 9 11 12 12 12 8 5 4 3 4 5 6 6 6 6 8
21 21 21 20 18 16 15 16 12 5 7 9 8 9 13 17 22 23 19 9 5 5 4 14 12 2 2 8 9 11 18 22 18 17 25 28 20 13 11 8 9 14 8 3 3 3 1 0 2 3 3 5 7 7 5 6 7 8 7 6 7 8 9 8 8 10 12 11 9 8 7 8 9 11 12 13 11 7 7 5 4 5 5 6 5 6 6 6
20 21 20 19 16 14 15 16 13 5 4 4 1 5 6 6 12 19 23 16 5 1 2 9 9 2 2 8 10 16 19 18 14 16 26 29 23 18 14 10 9 8 6 2 1 1 1 2 4 5 6 7 9 7 7 9 9 10 9 7 7 7 8 9 9 9 11 11 8 7 8 8 8 9 11 12 9 7 7 5 3 5 5 6 4 3 3 4
20 20 19 18 15 12 15 17 13 8 0 4 4 6 6 2 2 6 13 13 9 8 6 3 5 3 4 6 10 18 17 13 11 17 27 29 23 17 13 10 3 2 5 6 3 1 0 5 6 7 8 10 12 10 9 10 9 10 9 7 7 8 8 9 10 8 9 8 6 5 7 8 7 8 9 9 9 8 8 5 4 5 2 4 6 3 4 5
19 18 18 16 13 11 15 17 16 13 5 0 2 4 3 2 1 1 3 6 9 7 6 3 3 5 6 5 9 17 12 8 10 17 27 29 20 11 7 9 5 3 6 8 5 0 2 6 8 9 10 11 12 9 7 8 8 8 7 6 7 6 7 9 8 9 9 6 5 6 6 8 8 8 7 6 7 7 7 8 8 7 7 9 11 13 11 10
18 17 17 15 11 11 15 17 19 17 10 7 9 9 5 4 3 1 2 3 5 3 3 3 4 7 9 3 8 17 8 5 11 16 26 27 16 8 6 7 7 5 7 7 5 3 4 6 10 12 10 9 9 6 5 6 6 5 4 5 5 4 7 7 3 5 6 3 4 7 6 8 8 8 7 5 4 5 10 14 16 17 16 15 16 16 16 16
17 15 15 14 9 10 14 17 18 19 16 16 15 11 6 3 2 1 3 0 1 1 2 4 4 7 9 4 10 17 7 6 10 11 23 22 11 8 6 6 7 6 7 7 6 5 5 7 10 12 10 9 9 7 7 6 4 3 4 4 5 5 6 5 1 5 9 6 6 7 5 6 7 7 6 5 8 12 15 18 19 19 17 17 16 15 17 18
15 15 14 13 7 7 12 14 15 15 17 18 17 11 5 3 2 2 4 1 1 1 1 2 2 5 6 4 12 13 3 5 7 9 20 18 9 9 5 5 6 5 7 9 7 4 5 7 10 11 11 10 8 7 9 7 4 4 4 3 4 6 6 6 7 9 10 8 8 7 3 4 8 9 11 11 15 17 17 19 20 17 16 15 16 17 17 17
13 15 14 12 7 5 8 10 12 11 11 14 13 9 6 4 2 2 3 0 2 1 1 1 1 5 7 8 13 10 1 4 5 10 18 16 10 7 3 4 4 5 8 9 7 2 5 7 8 11 12 10 7 5 7 6 5 5 2 1 4 7 7 8 10 9 6 4 4 3 1 3 7 12 15 13 15 18 16 19 19 17 17 16 16 16 15 16
12 14 13 12 8 5 5 6 7 7 7 10 9 7 6 4 1 2 2 1 2 2 1 3 2 8 11 10 14 9 1 4 9 13 16 16 12 3 2 5 1 4 6 4 3 1 3 7 6 9 10 9 8 5 6 6 5 5 1 2 7 8 8 9 9 6 3 3 4 3 3 2 5 11 14 12 15 18 17 19 18 15 16 15 15 15 15 16
11 13 12 13 11 7 5 4 6 6 4 5 7 6 6 5 0 1 1 2 3 3 4 5 3 8 12 10 14 8 1 6 11 11 15 18 14 1 1 7 3 4 4 0 2 1 2 8 8 8 8 7 7 6 7 7 4 5 5 7 10 10 10 9 8 5 2 5 4 2 4 3 6 9 11 11 14 18 18 19 17 16 16 15 15 15 16 17
11 12 11 12 13 12 9 4 6 7 3 4 8 6 4 2 1 1 1 2 2 3 1 3 3 7 10 9 10 6 1 6 5 9 15 19 19 4 1 7 5 7 7 1 3 3 2 7 9 8 8 6 6 9 11 7 3 7 10 10 10 10 9 7 6 5 3 3 3 4 4 4 6 6 9 11 14 17 17 17 17 17 17 16 16 16 15 16
10 12 10 10 10 12 10 6 7 6 3 7 8 4 1 3 2 1 2 1 2 2 0 3 3 6 10 7 6 6 2 3 4 8 13 12 19 11 1 4 7 9 6 2 1 5 4 2 3 5 6 6 9 13 12 5 4 9 12 12 11 7 5 4 3 4 3 2 6 5 2 3 5 6 8 10 13 13 12 13 14 15 15 14 14 15 15 15
8 11 11 10 9 8 6 6 8 5 6 9 6 3 3 2 1 1 3 0 0 2 1 3 4 5 9 6 4 7 6 5 4 7 7 5 13 14 3 2 7 5 2 1 2 9 6 3 1 2 2 5 10 11 11 5 6 10 11 11 8 2 3 1 1 2 1 4 8 9 6 3 4 6 8 9 11 11 9 10 11 13 14 13 13 14 15 14
7 10 12 12 12 9 4 3 7 7 8 10 4 3 1 1 0 3 2 1 1 3 2 3 5 6 9 7 4 8 7 6 7 7 8 6 9 14 7 3 6 4 4 5 5 11 8 2 4 2 2 6 9 7 9 6 4 7 7 7 6 2 2 0 1 2 3 3 3 7 11 9 5 4 6 8 10 10 9 10 11 13 13 12 12 13 13 13
5 8 11 13 12 11 8 5 8 8 9 9 2 1 1 1 3 2 0 1 1 2 2 2 5 7 8 6 5 8 6 4 8 7 7 7 6 10 10 7 7 5 5 6 6 10 7 1 7 5 0 7 10 7 8 7 5 8 8 7 7 4 2 3 2 3 4 3 2 3 6 8 7 4 6 8 9 9 8 8 10 10 10 11 12 11 11 10
5 6 9 12 10 10 11 9 9 9 8 5 1 2 1 2 3 1 2 3 1 2 2 2 5 6 6 5 5 7 4 1 7 7 5 6 5 6 9 9 8 4 2 4 5 7 6 1 7 8 4 7 10 7 7 7 8 9 8 7 6 4 4 5 4 2 2 2 2 3 4 4 4 3 6 7 7 8 8 8 8 8 9 10 10 10 9 9
4 6 6 8 9 11 13 11 10 10 6 2 2 1 4 4 1 0 1 1 1 2 2 2 5 4 2 2 3 5 3 2 6 7 5 5 5 4 6 8 10 6 2 3 2 4 4 3 5 8 5 7 9 6 5 7 7 7 6 4 4 4 3 3 3 3 2 1 1 3 3 2 2 1 4 6 7 7 7 8 8 8 8 8 8 8 9 9
4 6 6 6 8 11 13 10 11 10 3 1 2 2 5 3 1 1 1 1 0 2 2 1 3 3 1 1 0 2 1 1 6 6 3 4 4 4 4 5 9 8 4 2 2 3 3 4 4 8 7 6 8 6 7 7 6 5 5 3 3 2 0 2 3 3 2 0 2 4 3 2 1 0 2 3 4 6 7 7 7 8 7 7 7 8 9 9
5 6 6 5 8 13 13 11 11 8 2 1 2 3 3 1 1 1 2 1 1 2 3 2 2 3 2 1 0 2 1 0 4 4 2 3 3 3 4 3 7 8 5 3 3 3 2 5 7 10 8 5 7 8 7 6 5 5 4 5 6 3 3 1 4 4 1 2 2 1 3 1 1 1 3 2 2 4 5 6 7 7 7 7 7 7 7 8
5 6 4 4 11 16 13 11 10 4 1 1 3 3 1 0 1 1 2 2 1 3 4 2 2 2 2 2 1 4 4 1 3 4 2 1 1 3 3 3 5 7 6 3 1 1 2 6 8 6 6 7 8 8 3 7 7 4 3 6 7 1 3 1 2 3 4 3 1 2 4 3 2 1 1 1 2 3 2 3 4 5 6 7 6 6 7 7
4 6 4 5 14 16 11 11 8 2 1 2 5 3 1 0 1 1 2 2 1 3 2 1 2 1 0 2 1 4 5 3 3 4 3 1 1 2 2 2 4 7 7 3 1 1 2 5 6 2 6 9 8 6 3 6 8 4 3 6 3 2 2 3 1 2 3 3 2 1 3 3 2 2 3 3 3 3 2 2 3 4 6 5 5 5 6 6
4 4 2 6 16 13 9 10 7 3 1 3 4 2 1 1 2 1 2 2 2 2 1 1 2 1 1 2 3 3 3 3 3 2 2 1 1 2 2 1 3 7 9 5 1 2 3 2 3 3 8 9 5 4 3 5 8 5 4 5 3 1 1 1 1 1 1 2 3 2 1 0 1 3 5 5 4 4 2 2 3 4 5 4 4 4 4 4
3 1 1 11 18 10 7 9 5 2 3 3 2 1 1 0 2 0 2 2 1 2 1 1 1 1 1 2 3 2 3 3 2 2 0 0 1 2 3 2 3 6 9 6 1 2 3 1 3 5 9 7 2 3 3 3 5 5 5 6 5 3 1 1 1 1 2 1 2 3 4 1 2 3 5 6 5 4 3 2 3 4 4 4 4 4 3 3
1 1 1 13 16 7 5 6 3 4 3 2 3 2 1 1 1 2 1 2 2 1 2 2 0 1 0 2 2 1 2 3 3 2 1 1 1 1 1 3 4 5 7 5 1 2 2 1 3 6 7 4 1 1 2 2 2 4 3 4 4 4 3 2 2 2 2 0 1 0 3 3 0 2 5 5 4 4 3 3 3 3 3 3 4 5 4 3
1 1 3 12 13 6 4 4 3 4 2 2 2 1 1 1 1 2 1 2 2 1 2 2 2 2 1 1 3 3 2 3 3 2 1 0 1 1 2 4 4 4 3 3 1 3 1 2 3 5 6 2 2 2 2 3 1 2 1 2 3 3 2 2 1 3 3 3 2 1 2 4 1 3 5 5 5 5 4 4 3 2 3 2 2 4 5 4
1 0 4 12 11 4 4 4 2 4 3 1 2 1 2 1 0 2 1 1 1 1 1 1 1 1 0 0 2 3 3 2 2 2 2 2 3 3 4 5 5 4 3 2 2 2 1 1 2 4 5 2 3 4 4 3 2 2 1 2 2 1 2 1 2 2 2 4 3 1 1 4 3 4 4 5 6 6 5 4 3 2 2 2 3 3 4 4
2 1 2 9 10 3 2 3 3 3 2 1 1 2 1 0 0 1 1 1 1 1 1 1 1 0 0 2 2 1 3 1 1 2 3 2 2 3 4 5 4 4 2 2 2 3 1 0 1 3 3 3 4 4 4 3 3 2 2 1 2 0 0 1 2 1 1 4 1 2 3 3 3 4 5 7 6 6 7 5 4 3 1 2 3 3 3 4
2 1 2 5 11 7 3 1 2 4 3 1 2 2 1 1 1 1 1 1 1 0 1 1 2 1 2 4 3 2 3 1 1 3 4 2 1 3 3 4 3 3 3 3 3 3 2 1 1 1 1 2 3 3 2 4 4 2 3 1 2 3 1 1 1 1 3 3 2 3 4 3 1 4 5 6 2 3 4 5 5 3 2 1 2 3 3 5
2 1 1 2 7 7 3 1 2 5 4 3 2 2 2 1 1 1 2 2 1 1 1 1 1 1 2 3 2 1 2 2 1 1 2 3 1 1 0 1 3 2 2 3 5 3 1 2 2 3 4 4 6 6 5 6 6 6 7 6 5 4 2 2 1 3 3 3 4 6 7 7 7 7 7 5 6 6 2 4 3 2 1 1 1 3 4 5
2 2 1 1 2 3 3 3 3 4 4 3 2 3 3 3 2 1 1 1 1 1 1 2 1 1 3 3 2 1 1 2 1 1 2 4 3 3 4 1 5 1 1 2 5 2 0 3 4 6 8 8 8 11 9 7 8 10 11 10 7 5 4 4 5 6 2 3 5 7 6 8 9 7 6 7 8 6 1 2 1 1 1 1 1 3 5 6
1 1 1 1 1 1 2 2 2 3 3 1 2 3 4 4 3 2 2 1 1 1 0 2 3 4 4 4 2 1 1 1 2 3 3 4 3 3 3 2 5 2 2 1 4 2 1 3 5 5 7 8 8 12 12 9 9 10 11 13 11 8 7 8 9 9 5 5 8 7 7 10 10 7 8 9 7 3 0 0 1 2 3 2 1 4 5 6
2 1 1 2 1 1 1 0 2 3 3 2 2 4 5 5 5 2 2 3 1 2 3 2 3 6 6 5 3 2 3 2 3 3 3 2 2 2 2 1 3 3 3 2 2 1 0 2 3 3 6 9 9 12 13 11 10 11 12 13 12 11 10 9 10 10 10 11 13 11 13 16 13 10 11 8 3 2 1 2 3 4 4 3 2 5 5 6
2 1 1 0 1 1 1 0 1 2 2 1 2 3 4 5 6 3 3 4 3 2 4 4 4 5 6 5 5 4 5 3 3 3 3 3 2 2 2 1 1 2 3 2 1 1 1 1 2 2 4 8 8 8 9 8 9 12 14 13 13 13 11 10 10 10 9 11 12 12 14 15 11 8 7 4 3 3 4 4 5 5 4 3 4 5 6 6
2 1 2 1 1 2 1 1 1 1 1 2 3 3 4 6 8 5 3 6 6 4 6 6 4 3 4 5 6 7 5 3 4 4 2 3 3 1 1 1 1 1 2 2 1 1 2 2 4 3 3 6 3 1 4 6 9 13 16 16 15 12 9 8 8 8 9 9 9 9 10 10 7 4 3 4 5 6 6 6 5 4 3 4 5 6 7 7
2 1 2 1 1 3 2 1 1 2 2 3 4 4 3 5 7 6 3 4 5 5 7 6 4 3 3 5 6 5 1 2 3 4 3 3 4 3 3 4 3 2 2 1 1 1 2 1 3 2 3 4 1 3 5 6 7 9 10 10 10 10 8 7 6 7 9 9 7 7 8 7 5 3 4 5 6 7 6 4 3 3 4 5 6 8 9 9
Wind_Direction
27 25 21 18 14 12 9 6 6 4 2 1 359 358 356 356 352 349 351 353 352 355 358 353 354 354 355 0 279 189 20 25 33 31 35 18 357 352 344 342 335 335 345 344 346 348 350 351 350 345 335 328 213 16 9 327 253 299 254 231 248 238 235 253 267 324 11 10 348 345 346 326 316 11 104 344 258 263 289 280 279 244 155 111 128 132 131 135
23 21 17 14 11 10 7 6 5 2 1 359 358 356 355 354 350 350 354 357 -0 5 13 8 7 2 0 1 311 225 214 20 31 33 27 7 358 356 349 346 342 344 346 340 342 348 347 343 340 340 338 334 297 78 8 286 168 234 252 241 246 247 274 276 325 28 24 360 339 343 348 335 345 351 358 297 237 215 255 255 252 246 158 114 129 133 135 141
20 17 15 13 10 8 6 4 2 1 360 358 357 354 353 352 349 353 359 3 7 16 22 20 20 14 13 9 334 213 228 301 22 23 9 359 356 355 351 350 352 356 347 334 333 338 338 327 327 334 334 322 349 20 339 288 169 215 235 250 253 269 282 280 15 47 23 354 337 342 341 330 358 355 340 331 282 224 229 243 237 249 207 148 144 137 141 144
19 16 14 11 9 7 4 2 0 359 358 357 355 354 353 351 351 359 5 9 16 27 28 23 27 24 29 23 5 173 245 293 18 4 353 353 353 353 353 351 354 357 345 331 330 332 332 321 317 322 316 324 8 344 307 302 332 241 233 261 279 298 298 296 339 32 24 359 334 331 328 326 353 337 316 334 312 240 220 4 33 341 323 154 144 137 145 144
17 14 11 9 7 5 3 360 358 356 356 355 354 353 351 351 356 4 10 16 24 34 31 26 25 27 41 40 39 161 239 313 7 348 347 349 350 351 351 349 351 351 345 343 346 343 340 328 312 306 312 335 343 321 324 355 345 326 290 293 301 308 310 310 326 1 16 352 328 323 320 331 342 320 314 323 306 279 294 31 30 358 354 94 136 137 146 147
14 11 9 8 5 2 1 357 355 354 353 354 353 351 350 352 0 10 19 24 30 36 32 28 22 23 39 48 51 48 113 77 347 338 344 345 348 349 348 349 351 350 350 359 2 356 350 344 344 351 344 318 321 342 344 350 343 320 302 303 306 307 304 309 318 334 352 340 322 318 315 324 326 310 311 301 283 296 314 359 9 5 359 2 130 139 150 154
11 9 7 4 2 -0 358 355 353 352 352 352 351 350 349 354 7 21 30 29 32 39 36 29 24 21 14 38 58 50 62 48 339 337 343 343 346 347 347 350 353 352 356 5 6 358 349 358 13 358 332 316 341 350 332 334 326 298 290 292 297 300 299 307 315 326 341 330 316 315 311 312 310 306 309 300 295 304 310 331 344 350 350 336 354 141 156 162
8 7 4 1 359 356 356 357 354 351 351 351 350 349 351 359 20 35 40 32 31 48 46 33 28 24 10 352 37 51 55 1 337 339 342 341 345 349 351 355 356 355 358 6 5 356 348 6 16 355 344 344 337 334 325 327 305 278 287 300 306 308 310 318 323 326 327 320 316 310 303 300 302 306 296 289 293 302 308 315 321 325 325 325 328 325 158 164
6 3 0 359 356 355 359 0 358 355 352 350 349 350 358 16 42 50 43 29 29 54 54 40 38 34 27 8 16 60 22 343 339 340 342 343 345 350 354 356 358 357 358 1 4 4 360 10 12 355 342 323 314 324 321 316 293 293 314 318 318 313 314 318 312 310 307 305 310 301 295 292 304 314 293 285 289 281 286 294 299 303 295 295 308 314 321 251
4 1 358 356 354 355 360 0 1 359 353 349 351 356 15 39 58 56 39 24 28 52 56 47 48 45 45 37 40 62 0 341 346 345 344 344 344 348 353 356 359 359 357 352 2 18 11 1 359 340 316 313 322 321 305 309 321 317 314 309 308 303 302 302 295 293 290 285 278 275 272 273 285 288 275 290 308 294 276 273 274 278 280 278 265 278 300 302
2 359 356 354 353 355 359 1 2 2 355 352 357 9 36 57 67 54 30 21 27 46 55 48 51 51 50 45 50 51 356 345 348 349 348 347 346 348 351 355 2 3 359 348 357 20 12 353 350 324 303 351 339 314 303 343 341 318 306 301 294 290 287 282 279 277 274 271 258 257 259 256 248 250 260 277 287 289 294 291 279 271 277 286 278 260 262 273
1 358 355 352 351 353 359 2 3 6 2 2 12 26 48 65 71 50 26 24 33 51 58 46 49 44 38 49 57 19 357 354 351 351 352 352 349 348 351 357 3 7 5 350 350 10 6 347 346 325 327 351 327 317 333 340 328 300 293 290 283 284 280 270 263 257 256 260 251 253 264 253 231 239 251 253 250 256 267 276 285 284 286 292 292 281 255 255
360 357 354 351 351 354 1 4 7 9 9 16 27 34 42 61 73 54 34 32 44 60 60 47 45 31 10 55 46 8 2 359 355 353 354 354 350 349 358 2 -0 5 4 344 338 354 354 345 343 318 317 322 308 327 326 310 291 276 274 265 280 289 279 271 255 239 242 251 243 242 263 259 247 247 246 243 239 240 245 248 256 266 273 281 286 280 253 239
359 356 353 351 353 358 3 9 12 13 20 35 41 43 44 67 90 64 46 46 51 57 51 33 23 6 359 83 29 6 359 355 357 356 355 354 351 351 0 3 1 6 347 320 327 340 338 331 308 285 285 259 281 310 308 298 280 274 273 255 270 273 282 292 282 239 245 264 267 262 268 275 286 274 266 255 233 228 238 240 238 244 252 261 280 286 270 230
358 356 353 353 357 2 9 15 16 21 42 54 56 57 55 67 87 66 47 48 49 45 38 26 10 348 35 105 9 356 353 354 357 354 356 355 351 349 350 350 351 3 347 308 318 298 266 284 278 285 300 271 272 295 311 315 293 275 286 293 290 287 303 303 302 297 248 294 320 287 277 281 276 264 274 299 262 223 230 238 234 237 245 248 258 273 278 270
357 355 355 356 1 7 15 19 21 36 66 71 70 65 62 59 52 38 11 7 27 38 39 20 352 333 72 60 342 351 352 350 347 348 356 354 348 343 340 337 329 339 352 314 289 232 222 248 270 272 302 301 306 317 325 319 305 323 348 336 329 326 328 324 331 334 325 337 320 294 305 309 292 298 323 327 316 277 239 238 232 231 240 247 246 246 262 279
357 356 355 358 4 10 18 22 28 58 91 88 81 70 64 56 46 37 19 344 329 15 35 14 349 317 89 25 351 349 341 337 339 345 351 351 346 338 334 332 318 307 285 237 259 234 204 202 276 287 15 346 346 341 330 324 332 343 347 336 328 332 330 326 330 330 344 351 319 306 312 302 298 314 329 317 309 317 302 289 281 263 258 257 252 242 242 254
358 356 356 358 3 12 20 24 31 72 116 106 90 66 55 54 51 43 34 24 317 292 1 8 5 139 89 12 354 332 328 327 331 341 347 351 349 334 315 294 286 297 290 216 228 237 198 137 6 10 17 1 354 350 325 319 326 321 323 322 319 324 313 307 312 313 330 331 311 314 306 297 307 313 317 308 299 303 297 299 310 300 286 270 254 238 244 243
358 357 358 358 1 14 24 26 27 47 167 181 11 349 352 42 63 48 38 38 29 17 43 359 8 102 309 343 337 326 328 324 327 347 352 352 345 331 315 288 257 283 331 7 240 221 308 359 26 13 5 358 348 337 310 308 314 307 303 299 296 300 294 293 294 299 317 311 291 301 292 292 311 305 298 298 300 295 276 266 253 257 260 278 277 225 258 291
358 358 358 358 2 20 31 29 26 29 155 242 305 335 329 335 104 49 33 39 60 75 90 29 8 40 323 323 331 333 337 336 344 359 357 352 341 327 325 324 272 173 8 347 330 107 0 11 25 9 359 347 335 327 313 308 305 299 295 292 289 287 288 288 295 323 343 322 281 271 275 280 287 283 284 294 310 305 287 292 282 266 276 322 334 0 350 342
359 -0 360 -0 9 30 39 39 36 37 42 283 20 30 19 11 40 56 15 52 70 72 93 70 7 21 348 319 333 337 335 336 351 4 1 355 348 337 332 344 7 61 8 339 324 42 71 27 14 1 359 342 330 329 323 315 306 303 297 293 290 282 288 298 319 352 0 343 300 289 282 276 273 270 273 279 292 304 330 5 8 10 29 27 25 27 20 19
0 1 0 4 21 42 45 45 43 42 54 82 75 74 76 44 33 347 308 79 71 40 89 55 28 26 359 339 350 341 326 327 346 3 2 357 0 1 333 346 21 29 0 347 341 17 46 24 2 353 353 339 331 338 336 314 291 293 291 283 291 300 305 313 354 346 333 342 320 314 294 274 279 278 269 267 295 348 26 35 40 42 42 40 37 36 31 30
4 6 5 9 27 50 50 49 44 41 53 68 67 68 75 39 31 346 324 57 101 0 55 33 24 16 3 32 360 343 346 5 346 354 359 359 359 345 329 353 19 14 4 1 357 22 29 359 352 347 343 342 346 10 8 331 288 294 306 291 296 326 329 319 332 305 306 303 280 282 278 284 302 307 321 12 32 39 42 43 46 46 46 45 41 42 39 34
16 21 19 17 25 51 52 52 47 41 49 61 60 56 50 5 17 0 319 268 106 42 76 31 21 20 5 358 348 340 346 10 348 347 356 2 349 324 330 2 7 12 10 355 342 33 43 347 344 344 338 348 357 23 21 353 332 330 324 323 314 326 326 305 309 313 305 288 254 239 249 352 351 2 20 31 44 47 43 42 44 41 41 45 44 43 41 39
25 26 25 23 29 51 51 52 47 41 50 57 51 41 19 0 36 0 316 222 49 14 133 92 59 22 352 328 343 339 293 12 1 348 353 1 347 317 325 348 0 9 358 351 337 32 36 343 349 351 337 351 3 17 28 7 331 326 347 44 314 312 307 299 312 319 314 295 262 230 140 25 2 21 29 22 34 41 39 45 45 37 36 37 40 42 39 40
29 29 30 28 30 50 55 51 32 28 60 54 31 14 356 346 67 6 315 173 27 339 351 356 345 6 356 338 336 325 264 1 337 344 356 4 357 307 334 343 350 8 346 346 334 268 3 341 357 356 333 348 3 359 13 4 329 323 350 305 303 303 295 298 309 313 320 306 310 1 72 69 20 33 34 21 32 36 31 40 42 39 40 36 37 39 36 39
30 29 37 36 35 50 60 45 23 24 61 31 353 341 333 333 40 350 330 127 29 338 338 348 335 360 359 344 338 335 168 311 316 347 1 7 8 266 341 1 342 350 335 200 13 291 323 347 358 357 340 353 2 341 334 343 334 300 296 305 306 303 296 299 306 302 301 292 289 102 116 86 38 34 32 26 36 38 29 30 33 35 39 38 39 39 36 38
31 28 40 44 47 64 71 53 45 53 45 331 338 336 318 0 43 299 49 102 349 326 331 340 321 352 348 336 356 31 163 294 322 349 343 7 18 331 236 22 340 318 321 325 16 325 305 359 359 350 350 358 346 320 312 322 309 275 290 303 296 291 292 295 305 298 287 311 8 96 127 76 41 19 25 33 38 40 34 28 27 30 35 37 39 40 39 38
31 30 41 45 51 64 69 64 60 62 358 331 348 1 69 56 12 291 61 141 295 336 100 345 336 345 340 332 18 40 9 353 23 331 321 9 20 352 218 46 343 317 311 243 327 333 346 32 350 341 359 351 326 314 307 296 248 273 291 296 277 256 259 271 296 298 287 15 26 35 126 105 58 17 16 33 37 37 36 32 29 28 31 36 38 39 40 38
34 35 43 50 57 52 61 68 45 20 337 344 2 72 90 39 334 46 35 245 174 351 284 359 353 327 339 350 29 11 4 18 9 335 329 16 19 8 67 92 350 326 324 57 327 337 347 146 145 9 28 328 314 312 314 288 246 279 298 302 291 213 167 233 276 286 338 49 32 36 54 85 72 30 21 32 35 31 33 37 35 32 33 35 39 40 39 38
39 42 45 49 57 45 39 50 12 349 337 348 17 117 97 282 0 77 65 180 88 346 309 6 356 340 348 359 8 351 354 4 355 360 2 6 21 19 29 32 354 345 9 15 356 344 348 89 34 19 173 328 323 321 333 317 271 299 316 329 347 56 124 154 294 332 54 67 48 59 60 61 73 44 21 31 34 30 32 36 37 38 36 34 38 42 41 39
44 48 47 43 51 43 25 353 344 341 336 344 2 192 239 81 30 47 202 327 30 351 354 347 341 344 338 341 2 345 334 351 356 4 7 9 32 34 42 35 354 357 12 357 347 343 334 51 23 7 245 354 349 342 344 338 334 343 345 356 11 25 22 31 22 21 59 51 16 73 64 62 76 54 21 22 24 28 33 35 38 40 40 40 40 40 41 40
37 41 42 32 37 33 15 358 345 342 337 343 282 242 341 69 41 355 298 343 274 274 344 324 320 333 328 335 2 342 325 22 1 357 7 23 41 53 61 50 16 16 342 321 334 344 330 320 18 9 335 355 6 2 353 343 337 348 358 4 15 23 9 15 16 21 72 62 33 66 65 80 103 57 19 12 10 18 27 34 39 38 40 43 40 39 41 42
34 37 35 18 20 13 2 357 349 346 347 332 255 322 48 73 91 128 307 340 210 269 316 310 302 316 356 14 3 346 357 61 15 3 3 22 34 37 42 37 27 21 295 312 345 349 343 307 1 13 337 339 6 7 337 319 317 339 356 8 39 50 15 352 351 354 354 300 307 22 33 63 130 46 359 1 4 9 19 30 34 35 38 40 37 38 38 39
22 27 29 14 4 353 349 349 346 352 1 263 281 29 65 101 190 37 0 251 75 316 298 293 306 316 67 86 24 22 41 12 4 10 28 32 29 23 18 17 20 15 348 351 336 334 334 269 323 355 325 332 4 348 326 326 317 326 347 16 33 36 81 288 272 251 261 332 17 24 37 22 15 267 287 329 8 14 18 23 27 30 33 36 34 33 33 32
11 3 11 3 343 343 346 343 342 357 7 274 21 48 61 120 202 44 24 314 30 339 302 306 352 17 20 317 33 47 100 180 340 349 70 71 44 42 43 24 20 22 23 10 320 346 348 285 312 331 322 1 12 326 327 1 339 314 0 4 313 270 154 237 280 258 259 82 82 104 121 98 320 215 240 248 58 37 21 16 23 25 23 33 35 29 29 27
355 334 328 330 342 346 345 338 341 358 274 324 59 69 61 105 285 12 20 356 0 320 306 326 10 24 351 292 15 8 352 340 340 348 38 69 38 43 47 49 37 26 22 17 304 51 22 293 294 318 337 357 349 319 342 39 10 337 14 345 314 318 117 260 305 337 0 42 113 165 146 172 215 172 203 200 91 79 60 27 24 24 24 32 33 25 25 24
341 314 282 326 348 347 341 339 340 311 272 42 80 93 140 69 330 353 21 0 297 297 312 14 350 355 276 280 320 353 347 357 349 355 26 20 20 49 40 29 28 14 4 2 308 357 0 297 283 6 4 335 336 352 14 22 11 358 344 341 343 58 5 322 357 0 347 358 334 180 150 182 210 162 157 147 94 90 109 83 48 35 35 32 26 25 23 21
338 297 236 353 352 348 344 340 324 276 317 67 94 112 136 13 321 346 18 336 291 305 328 95 326 329 33 316 318 345 9 21 346 346 56 41 17 77 91 343 352 0 349 345 15 331 329 296 278 359 355 323 328 31 10 346 356 356 354 357 11 113 293 320 339 323 17 346 329 330 328 304 149 153 148 136 106 82 74 87 77 45 43 37 19 21 24 23
342 272 166 356 350 344 345 341 327 12 44 55 67 85 136 212 259 179 35 349 332 338 349 126 235 276 333 316 308 336 0 351 326 326 31 62 59 71 73 37 357 355 335 321 41 12 327 283 270 321 343 334 352 45 27 0 344 351 19 13 0 348 322 122 341 11 85 340 327 338 315 316 115 138 128 118 114 101 75 74 80 56 46 39 19 10 17 32
322 150 12 352 349 337 344 1 18 40 67 92 63 77 166 201 190 134 78 349 358 39 19 14 0 121 85 306 315 355 344 323 304 311 338 72 86 43 56 49 11 350 334 323 36 56 352 292 284 306 325 344 59 72 64 87 337 337 22 25 9 355 348 20 351 351 44 236 213 288 282 276 114 108 115 121 129 125 102 79 76 67 51 35 19 6 357 19
279 130 341 352 356 347 2 47 53 21 70 103 34 63 138 136 107 95 85 345 345 36 29 19 36 70 129 288 354 13 345 311 303 329 355 28 32 7 62 54 12 326 323 330 10 57 35 271 278 284 281 297 74 89 70 78 43 317 21 62 33 5 18 47 316 312 346 293 257 173 242 267 235 120 125 142 148 137 122 101 96 91 61 30 15 10 346 350
350 0 338 354 357 354 33 74 78 34 58 13 319 55 87 91 31 12 15 302 322 327 350 65 71 36 192 210 31 14 339 317 286 317 343 351 22 72 93 61 11 321 320 338 338 12 5 254 269 285 279 301 43 23 355 16 48 5 0 83 80 114 132 136 259 318 331 275 278 66 246 261 224 165 150 160 160 147 140 129 118 109 65 23 3 8 342 330
2 287 311 355 3 20 74 80 98 89 79 354 0 74 79 108 320 3 338 243 250 268 249 159 91 352 115 79 77 34 3 14 215 332 354 353 20 106 102 63 23 337 4 50 347 333 322 250 335 317 321 349 354 348 333 338 20 359 305 145 123 143 108 250 260 22 269 247 183 140 245 253 207 187 176 181 176 142 138 144 131 124 105 35 356 340 333 315
320 276 240 1 23 51 101 102 106 115 116 91 72 95 133 125 55 11 353 281 280 346 304 46 63 82 99 68 50 27 21 63 175 1 1 332 314 125 96 57 39 355 16 43 359 323 278 288 339 350 8 335 307 302 307 320 333 320 281 274 318 315 305 184 258 286 249 245 180 184 242 281 228 213 218 218 244 50 105 126 117 121 135 93 5 325 317 298
305 357 248 358 29 50 89 94 92 111 129 147 130 139 189 163 111 39 16 325 290 37 355 350 48 76 119 104 74 5 346 329 318 3 330 299 297 107 345 78 83 39 11 27 359 326 255 280 247 217 224 238 266 283 308 327 314 293 291 290 284 279 248 182 226 240 237 284 270 230 242 272 272 266 268 276 320 342 41 103 99 115 133 98 349 310 304 291
315 346 3 19 32 53 70 54 63 104 137 167 137 137 180 172 135 80 355 322 342 24 331 290 227 188 173 160 158 197 282 322 321 216 253 254 252 306 307 110 102 120 223 13 355 342 250 284 245 228 241 247 265 283 294 304 287 280 287 285 269 257 243 222 223 232 258 330 276 242 241 263 266 270 286 302 315 317 357 91 91 189 201 212 256 301 305 300
23 351 354 6 12 54 58 39 58 89 115 138 118 142 173 172 164 198 196 151 29 37 212 265 237 225 211 181 168 164 180 285 271 232 244 246 250 311 319 120 120 165 200 54 9 23 92 263 251 246 261 260 265 278 282 280 270 267 273 274 272 259 238 232 237 237 236 242 250 266 289 279 273 279 290 294 296 293 109 84 261 243 238 231 269 304 304 304
86 88 13 352 3 37 15 69 103 101 112 110 136 166 176 183 188 186 133 132 193 222 198 232 234 223 220 200 184 182 179 205 278 260 228 241 268 278 273 154 134 184 190 116 38 0 172 239 265 293 285 275 263 261 265 267 266 264 261 260 264 259 241 237 245 240 233 241 252 269 278 272 268 270 276 275 242 195 228 253 253 249 245 245 279 289 291 296
114 101 88 33 86 88 4 319 136 147 147 141 212 191 179 190 188 165 134 156 175 183 189 221 233 216 217 205 196 216 209 208 282 281 206 210 259 245 237 268 123 188 213 152 98 312 228 304 340 356 298 282 263 246 249 258 269 274 271 262 259 261 255 244 244 242 240 248 255 259 265 269 268 261 262 243 187 210 233 234 244 248 246 262 276 279 285 288
108 88 107 132 136 132 152 274 251 255 205 185 203 181 185 205 189 166 165 182 185 172 174 201 228 216 209 208 213 235 248 255 285 292 248 240 264 235 199 274 77 157 234 180 143 185 188 292 332 7 310 282 274 285 280 286 289 280 274 266 253 248 249 237 221 217 220 234 248 250 253 263 263 236 217 210 212 230 232 224 236 246 249 271 276 275 277 278
135 109 116 121 132 159 169 184 235 263 260 205 192 171 187 207 177 158 166 187 195 185 173 190 211 191 195 221 225 230 285 339 309 311 312 281 274 264 245 262 271 262 254 244 232 190 162 291 322 346 295 275 329 4 322 315 310 283 267 259 232 214 221 232 222 210 209 215 230 240 244 256 261 246 248 254 251 253 249 222 207 236 255 263 269 273 274 273